contact:dominique.lefevre@mio.osupytheas.fr, maurice.libes@osupytheas.fr, didier.mallarino@osupytheas.fr
Project:EMSO http://www.emso-fr.org/EMSO-France
Depth: 2436.0 m
Title:EMSO Ligure Ouest : Data MII capteur MICROCAT
DateTime_Computer,Latitude,Longitude,Temperature,Conductivity,Pressure,DateTime_Instrument
DateTime_Computer,Latitude,Longitude,degC,S m-1,dbar,DateTime_Instrument
2021-05-29T00:02:50Z,42.805,6.029,13.3009,4.60025,2470.404,2021-5-29T02:04:02Z
2021-05-29T00:05:53Z,42.805,6.029,13.3015,4.60060,2470.413,2021-5-29T02:07:05Z
2021-05-29T00:08:56Z,42.805,6.029,13.3009,4.60066,2470.404,2021-5-29T02:10:08Z
2021-05-29T00:11:59Z,42.805,6.029,13.3022,4.60047,2470.38,2021-5-29T02:13:11Z
2021-05-29T00:15:02Z,42.805,6.029,13.3020,4.60032,2470.38,2021-5-29T02:16:14Z
2021-05-29T00:18:05Z,42.805,6.029,13.3014,4.60031,2470.39,2021-5-29T02:19:17Z
2021-05-29T00:21:08Z,42.805,6.029,13.3006,4.60027,2470.39,2021-5-29T02:22:21Z
2021-05-29T00:24:12Z,42.805,6.029,13.3014,4.60024,2470.417,2021-5-29T02:25:24Z
2021-05-29T00:27:15Z,42.805,6.029,13.3012,4.60020,2470.343,2021-5-29T02:28:27Z
2021-05-29T00:30:18Z,42.805,6.029,13.2999,4.60025,2470.357,2021-5-29T02:31:30Z
2021-05-29T00:33:21Z,42.805,6.029,13.3010,4.60042,2470.39,2021-5-29T02:34:33Z
2021-05-29T00:36:24Z,42.805,6.029,13.3005,4.60073,2470.366,2021-5-29T02:37:36Z
2021-05-29T00:39:27Z,42.805,6.029,13.3021,4.60046,2470.366,2021-5-29T02:40:39Z
2021-05-29T00:42:30Z,42.805,6.029,13.3013,4.60052,2470.357,2021-5-29T02:43:42Z
2021-05-29T00:45:33Z,42.805,6.029,13.3011,4.60080,2470.366,2021-5-29T02:46:46Z
2021-05-29T00:48:37Z,42.805,6.029,13.3022,4.60054,2470.343,2021-5-29T02:49:49Z
2021-05-29T00:51:40Z,42.805,6.029,13.3016,4.60029,2470.32,2021-5-29T02:52:52Z
2021-05-29T00:54:43Z,42.805,6.029,13.3015,4.60050,2470.38,2021-5-29T02:55:55Z
2021-05-29T00:57:46Z,42.805,6.029,13.3018,4.60053,2470.366,2021-5-29T02:58:58Z
2021-05-29T01:00:49Z,42.805,6.029,13.3006,4.60027,2470.334,2021-5-29T03:02:01Z
2021-05-29T01:03:52Z,42.805,6.029,13.3021,4.60044,2470.357,2021-5-29T03:05:04Z
2021-05-29T01:06:55Z,42.805,6.029,13.3010,4.60047,2470.343,2021-5-29T03:08:07Z
2021-05-29T01:09:58Z,42.805,6.029,13.3021,4.60019,2470.32,2021-5-29T03:11:10Z
2021-05-29T01:13:01Z,42.805,6.029,13.3011,4.60041,2470.32,2021-5-29T03:14:14Z
2021-05-29T01:16:05Z,42.805,6.029,13.3019,4.60038,2470.32,2021-5-29T03:17:17Z
2021-05-29T01:19:08Z,42.805,6.029,13.3007,4.60032,2470.334,2021-5-29T03:20:20Z
2021-05-29T01:22:11Z,42.805,6.029,13.3015,4.60013,2470.334,2021-5-29T03:23:23Z
2021-05-29T01:25:14Z,42.805,6.029,13.3023,4.60019,2470.334,2021-5-29T03:26:26Z
2021-05-29T01:28:17Z,42.805,6.029,13.3011,4.60059,2470.334,2021-5-29T03:29:29Z
2021-05-29T01:31:20Z,42.805,6.029,13.3009,4.60059,2470.287,2021-5-29T03:32:32Z
2021-05-29T01:34:23Z,42.805,6.029,13.3007,4.60020,2470.31,2021-5-29T03:35:36Z
2021-05-29T01:37:27Z,42.805,6.029,13.3016,4.60029,2470.273,2021-5-29T03:38:39Z
2021-05-29T01:40:30Z,42.805,6.029,13.3015,4.60068,2470.273,2021-5-29T03:41:42Z
2021-05-29T01:43:33Z,42.805,6.029,13.3008,4.60066,2470.32,2021-5-29T03:44:45Z
2021-05-29T01:46:36Z,42.805,6.029,13.3009,4.60057,2470.306,2021-5-29T03:47:48Z
2021-05-29T01:49:39Z,42.805,6.029,13.3007,4.60034,2470.273,2021-5-29T03:50:51Z
2021-05-29T01:52:42Z,42.805,6.029,13.3029,4.60059,2470.297,2021-5-29T03:53:54Z
2021-05-29T01:55:45Z,42.805,6.029,13.3017,4.60039,2470.297,2021-5-29T03:56:57Z
2021-05-29T01:58:48Z,42.805,6.029,13.3021,4.60033,2470.273,2021-5-29T04:00:01Z
2021-05-29T02:01:51Z,42.805,6.029,13.3011,4.60049,2470.334,2021-5-29T04:03:04Z
2021-05-29T02:04:55Z,42.805,6.029,13.3002,4.60017,2470.334,2021-5-29T04:06:07Z
2021-05-29T02:07:58Z,42.805,6.029,13.3007,4.60043,2470.273,2021-5-29T04:09:10Z
2021-05-29T02:11:01Z,42.805,6.029,13.3016,4.60013,2470.273,2021-5-29T04:12:13Z
2021-05-29T02:14:04Z,42.805,6.029,13.3016,4.60029,2470.297,2021-5-29T04:15:16Z
2021-05-29T02:17:07Z,42.805,6.029,13.3001,4.60020,2470.264,2021-5-29T04:18:19Z
2021-05-29T02:20:10Z,42.805,6.029,13.2991,4.60000,2470.31,2021-5-29T04:21:22Z
2021-05-29T02:23:13Z,42.805,6.029,13.2993,4.59995,2470.297,2021-5-29T04:24:25Z
2021-05-29T02:26:16Z,42.805,6.029,13.2988,4.59996,2470.273,2021-5-29T04:27:29Z
2021-05-29T02:29:20Z,42.805,6.029,13.2985,4.59997,2470.31,2021-5-29T04:30:32Z
2021-05-29T02:32:23Z,42.805,6.029,13.2987,4.59997,2470.287,2021-5-29T04:33:35Z
2021-05-29T02:35:26Z,42.805,6.029,13.2984,4.59996,2470.273,2021-5-29T04:36:38Z
2021-05-29T02:38:29Z,42.805,6.029,13.2983,4.59996,2470.25,2021-5-29T04:39:41Z
2021-05-29T02:41:32Z,42.805,6.029,13.2994,4.60007,2470.264,2021-5-29T04:42:44Z
2021-05-29T02:44:35Z,42.805,6.029,13.2995,4.60006,2470.273,2021-5-29T04:45:47Z
2021-05-29T02:47:38Z,42.805,6.029,13.3001,4.60008,2470.273,2021-5-29T04:48:50Z
2021-05-29T02:50:41Z,42.805,6.029,13.3006,4.60029,2470.25,2021-5-29T04:51:54Z
2021-05-29T02:53:45Z,42.805,6.029,13.2990,4.60006,2470.273,2021-5-29T04:54:57Z
2021-05-29T02:56:48Z,42.805,6.029,13.2992,4.59999,2470.25,2021-5-29T04:58:00Z
2021-05-29T02:59:51Z,42.805,6.029,13.2987,4.59999,2470.25,2021-5-29T05:01:03Z
2021-05-29T03:02:54Z,42.805,6.029,13.2994,4.59997,2470.273,2021-5-29T05:04:06Z
2021-05-29T03:05:57Z,42.805,6.029,13.2989,4.60002,2470.227,2021-5-29T05:07:09Z
2021-05-29T03:09:00Z,42.805,6.029,13.3007,4.60028,2470.227,2021-5-29T05:10:12Z
2021-05-29T03:12:03Z,42.805,6.029,13.3012,4.60021,2470.273,2021-5-29T05:13:15Z
2021-05-29T03:15:06Z,42.805,6.029,13.3017,4.60033,2470.264,2021-5-29T05:16:19Z
2021-05-29T03:18:10Z,42.805,6.029,13.3016,4.60026,2470.273,2021-5-29T05:19:22Z
2021-05-29T03:21:13Z,42.805,6.029,13.3015,4.60031,2470.273,2021-5-29T05:22:25Z
2021-05-29T03:24:16Z,42.805,6.029,13.3021,4.60046,2470.264,2021-5-29T05:25:28Z
2021-05-29T03:27:19Z,42.805,6.029,13.3024,4.60042,2470.264,2021-5-29T05:28:31Z
2021-05-29T03:30:22Z,42.805,6.029,13.3027,4.60045,2470.227,2021-5-29T05:31:34Z
2021-05-29T03:33:25Z,42.805,6.029,13.3014,4.60024,2470.227,2021-5-29T05:34:37Z
2021-05-29T03:36:28Z,42.805,6.029,13.3018,4.60016,2470.227,2021-5-29T05:37:40Z
2021-05-29T03:39:31Z,42.805,6.029,13.3000,4.59998,2470.24,2021-5-29T05:40:44Z
2021-05-29T03:42:35Z,42.805,6.029,13.2990,4.59999,2470.264,2021-5-29T05:43:47Z
2021-05-29T03:45:38Z,42.805,6.029,13.2992,4.60018,2470.25,2021-5-29T05:46:50Z
2021-05-29T03:48:41Z,42.805,6.029,13.3025,4.60029,2470.264,2021-5-29T05:49:53Z
2021-05-29T03:51:44Z,42.805,6.029,13.3007,4.60024,2470.264,2021-5-29T05:52:56Z
2021-05-29T03:54:47Z,42.805,6.029,13.3021,4.60009,2470.24,2021-5-29T05:55:59Z
2021-05-29T03:57:50Z,42.805,6.029,13.2986,4.60003,2470.203,2021-5-29T05:59:02Z
2021-05-29T04:00:53Z,42.805,6.029,13.2986,4.59996,2470.25,2021-5-29T06:02:05Z
2021-05-29T04:03:56Z,42.805,6.029,13.2999,4.59997,2470.24,2021-5-29T06:05:09Z
2021-05-29T04:07:00Z,42.805,6.029,13.2986,4.59999,2470.264,2021-5-29T06:08:12Z
2021-05-29T04:10:03Z,42.805,6.029,13.3006,4.60018,2470.273,2021-5-29T06:11:15Z
2021-05-29T04:13:06Z,42.805,6.029,13.2993,4.60010,2470.24,2021-5-29T06:14:18Z
2021-05-29T04:16:09Z,42.805,6.029,13.2993,4.59997,2470.227,2021-5-29T06:17:21Z
2021-05-29T04:19:12Z,42.805,6.029,13.3003,4.59999,2470.213,2021-5-29T06:20:24Z
2021-05-29T04:22:15Z,42.805,6.029,13.2991,4.60017,2470.264,2021-5-29T06:23:27Z
2021-05-29T04:25:18Z,42.805,6.029,13.3004,4.60008,2470.264,2021-5-29T06:26:30Z
2021-05-29T04:28:21Z,42.805,6.029,13.3014,4.60020,2470.273,2021-5-29T06:29:34Z
2021-05-29T04:31:25Z,42.805,6.029,13.3014,4.60024,2470.273,2021-5-29T06:32:37Z
2021-05-29T04:34:28Z,42.805,6.029,13.3015,4.60011,2470.25,2021-5-29T06:35:40Z
2021-05-29T04:37:31Z,42.805,6.029,13.3024,4.60014,2470.25,2021-5-29T06:38:43Z
2021-05-29T04:40:34Z,42.805,6.029,13.3007,4.60000,2470.273,2021-5-29T06:41:46Z
2021-05-29T04:43:37Z,42.805,6.029,13.2998,4.60005,2470.25,2021-5-29T06:44:49Z
2021-05-29T04:46:40Z,42.805,6.029,13.3014,4.60018,2470.287,2021-5-29T06:47:52Z
2021-05-29T04:49:43Z,42.805,6.029,13.2989,4.59996,2470.203,2021-5-29T06:50:55Z
2021-05-29T04:52:46Z,42.805,6.029,13.2983,4.59997,2470.25,2021-5-29T06:53:59Z
2021-05-29T04:55:50Z,42.805,6.029,13.2983,4.59999,2470.227,2021-5-29T06:57:02Z
2021-05-29T04:58:53Z,42.805,6.029,13.2991,4.59997,2470.227,2021-5-29T07:00:05Z
2021-05-29T05:01:56Z,42.805,6.029,13.3009,4.60024,2470.273,2021-5-29T07:03:08Z
2021-05-29T05:04:59Z,42.805,6.029,13.2997,4.60039,2470.25,2021-5-29T07:06:11Z
2021-05-29T05:08:02Z,42.805,6.029,13.2996,4.60019,2470.287,2021-5-29T07:09:14Z
2021-05-29T05:11:05Z,42.805,6.029,13.2990,4.60001,2470.25,2021-5-29T07:12:17Z
2021-05-29T05:14:08Z,42.805,6.029,13.2996,4.59998,2470.25,2021-5-29T07:15:20Z
2021-05-29T05:17:11Z,42.805,6.029,13.2989,4.59996,2470.25,2021-5-29T07:18:24Z
2021-05-29T05:20:15Z,42.805,6.029,13.2998,4.59996,2470.227,2021-5-29T07:21:27Z
2021-05-29T05:23:18Z,42.805,6.029,13.2993,4.60001,2470.25,2021-5-29T07:24:30Z
2021-05-29T05:26:21Z,42.805,6.029,13.2990,4.59996,2470.287,2021-5-29T07:27:33Z
2021-05-29T05:29:24Z,42.805,6.029,13.2994,4.59998,2470.297,2021-5-29T07:30:36Z
2021-05-29T05:32:27Z,42.805,6.029,13.3007,4.60001,2470.25,2021-5-29T07:33:39Z
2021-05-29T05:35:30Z,42.805,6.029,13.3015,4.60014,2470.297,2021-5-29T07:36:42Z
2021-05-29T05:38:33Z,42.805,6.029,13.3003,4.60008,2470.287,2021-5-29T07:39:45Z
2021-05-29T05:41:36Z,42.805,6.029,13.2996,4.59999,2470.273,2021-5-29T07:42:49Z
2021-05-29T05:44:40Z,42.805,6.029,13.2988,4.59999,2470.273,2021-5-29T07:45:52Z
2021-05-29T05:47:43Z,42.805,6.029,13.2988,4.59999,2470.297,2021-5-29T07:48:55Z
2021-05-29T05:50:46Z,42.805,6.029,13.2990,4.59996,2470.31,2021-5-29T07:51:58Z
2021-05-29T05:53:49Z,42.805,6.029,13.2990,4.60000,2470.264,2021-5-29T07:55:01Z
2021-05-29T05:56:52Z,42.805,6.029,13.2987,4.59996,2470.287,2021-5-29T07:58:04Z
2021-05-29T05:59:55Z,42.805,6.029,13.2987,4.60001,2470.273,2021-5-29T08:01:07Z
2021-05-29T06:02:58Z,42.805,6.029,13.3014,4.60033,2470.297,2021-5-29T08:04:10Z
2021-05-29T06:06:01Z,42.805,6.029,13.3015,4.60002,2470.264,2021-5-29T08:07:14Z
2021-05-29T06:09:04Z,42.805,6.029,13.3016,4.60034,2470.287,2021-5-29T08:10:17Z
2021-05-29T06:12:08Z,42.805,6.029,13.3011,4.60032,2470.287,2021-5-29T08:13:20Z
2021-05-29T06:15:11Z,42.805,6.029,13.3012,4.60014,2470.273,2021-5-29T08:16:23Z
2021-05-29T06:18:14Z,42.805,6.029,13.2994,4.60011,2470.273,2021-5-29T08:19:26Z
2021-05-29T06:21:17Z,42.805,6.029,13.2986,4.60014,2470.264,2021-5-29T08:22:29Z
2021-05-29T06:24:20Z,42.805,6.029,13.3008,4.59998,2470.31,2021-5-29T08:25:32Z
2021-05-29T06:27:23Z,42.805,6.029,13.2986,4.59999,2470.297,2021-5-29T08:28:35Z
2021-05-29T06:30:26Z,42.805,6.029,13.2986,4.59996,2470.297,2021-5-29T08:31:39Z
2021-05-29T06:33:29Z,42.805,6.029,13.2990,4.60000,2470.31,2021-5-29T08:34:42Z
2021-05-29T06:36:33Z,42.805,6.029,13.2983,4.59995,2470.297,2021-5-29T08:37:45Z
2021-05-29T06:39:36Z,42.805,6.029,13.2990,4.60001,2470.297,2021-5-29T08:40:48Z
2021-05-29T06:42:39Z,42.805,6.029,13.2983,4.59996,2470.32,2021-5-29T08:43:51Z
2021-05-29T06:45:42Z,42.805,6.029,13.2991,4.59997,2470.297,2021-5-29T08:46:54Z
2021-05-29T06:48:45Z,42.805,6.029,13.2989,4.59996,2470.31,2021-5-29T08:49:57Z
2021-05-29T06:51:48Z,42.805,6.029,13.2989,4.59998,2470.334,2021-5-29T08:53:00Z
2021-05-29T06:54:51Z,42.805,6.029,13.2986,4.59998,2470.32,2021-5-29T08:56:04Z
2021-05-29T06:57:54Z,42.805,6.029,13.2986,4.59999,2470.297,2021-5-29T08:59:07Z
2021-05-29T07:00:58Z,42.805,6.029,13.2983,4.59998,2470.32,2021-5-29T09:02:10Z
2021-05-29T07:04:01Z,42.805,6.029,13.2986,4.59999,2470.297,2021-5-29T09:05:13Z
2021-05-29T07:07:04Z,42.805,6.029,13.2987,4.59995,2470.32,2021-5-29T09:08:16Z
2021-05-29T07:10:07Z,42.805,6.029,13.2987,4.59999,2470.343,2021-5-29T09:11:19Z
2021-05-29T07:13:10Z,42.805,6.029,13.2990,4.60002,2470.343,2021-5-29T09:14:22Z
2021-05-29T07:16:13Z,42.805,6.029,13.2989,4.59997,2470.297,2021-5-29T09:17:25Z
2021-05-29T07:19:16Z,42.805,6.029,13.2986,4.60003,2470.297,2021-5-29T09:20:28Z
2021-05-29T07:22:19Z,42.805,6.029,13.2983,4.59995,2470.343,2021-5-29T09:23:32Z
2021-05-29T07:25:23Z,42.805,6.029,13.2988,4.60000,2470.32,2021-5-29T09:26:35Z
2021-05-29T07:28:26Z,42.805,6.029,13.2985,4.59996,2470.343,2021-5-29T09:29:38Z
2021-05-29T07:31:29Z,42.805,6.029,13.2988,4.60001,2470.32,2021-5-29T09:32:41Z
2021-05-29T07:34:32Z,42.805,6.029,13.2986,4.60001,2470.334,2021-5-29T09:35:44Z
2021-05-29T07:37:35Z,42.805,6.029,13.2996,4.60001,2470.343,2021-5-29T09:38:47Z
2021-05-29T07:40:38Z,42.805,6.029,13.2983,4.60000,2470.32,2021-5-29T09:41:50Z
2021-05-29T07:43:41Z,42.805,6.029,13.2988,4.59998,2470.32,2021-5-29T09:44:53Z
2021-05-29T07:46:44Z,42.805,6.029,13.2985,4.59999,2470.39,2021-5-29T09:47:57Z
2021-05-29T07:49:48Z,42.805,6.029,13.2985,4.59996,2470.343,2021-5-29T09:51:00Z
2021-05-29T07:52:51Z,42.805,6.029,13.2986,4.60001,2470.32,2021-5-29T09:54:03Z
2021-05-29T07:55:54Z,42.805,6.029,13.2989,4.59996,2470.334,2021-5-29T09:57:06Z
2021-05-29T07:58:57Z,42.805,6.029,13.2986,4.59998,2470.343,2021-5-29T10:00:09Z
2021-05-29T08:02:00Z,42.805,6.029,13.2983,4.59997,2470.357,2021-5-29T10:03:12Z
2021-05-29T08:05:03Z,42.805,6.029,13.2986,4.59996,2470.38,2021-5-29T10:06:15Z
2021-05-29T08:08:06Z,42.805,6.029,13.2985,4.60004,2470.343,2021-5-29T10:09:18Z
2021-05-29T08:11:09Z,42.805,6.029,13.2985,4.59994,2470.366,2021-5-29T10:12:22Z
2021-05-29T08:14:13Z,42.805,6.029,13.2988,4.59994,2470.334,2021-5-29T10:15:25Z
2021-05-29T08:17:16Z,42.805,6.029,13.2984,4.59996,2470.357,2021-5-29T10:18:28Z
2021-05-29T08:20:19Z,42.805,6.029,13.2987,4.59999,2470.343,2021-5-29T10:21:31Z
2021-05-29T08:23:22Z,42.805,6.029,13.2987,4.60001,2470.32,2021-5-29T10:24:34Z
2021-05-29T08:26:25Z,42.805,6.029,13.2985,4.59999,2470.297,2021-5-29T10:27:37Z
2021-05-29T08:29:28Z,42.805,6.029,13.2987,4.59998,2470.343,2021-5-29T10:30:40Z
2021-05-29T08:32:31Z,42.805,6.029,13.2985,4.59996,2470.343,2021-5-29T10:33:43Z
2021-05-29T08:35:34Z,42.805,6.029,13.2990,4.59999,2470.32,2021-5-29T10:36:47Z
2021-05-29T08:38:38Z,42.805,6.029,13.2986,4.59998,2470.39,2021-5-29T10:39:50Z
2021-05-29T08:41:41Z,42.805,6.029,13.2986,4.59996,2470.334,2021-5-29T10:42:53Z
2021-05-29T08:44:44Z,42.805,6.029,13.2991,4.59998,2470.343,2021-5-29T10:45:56Z
2021-05-29T08:47:47Z,42.805,6.029,13.2982,4.59995,2470.343,2021-5-29T10:48:59Z
2021-05-29T08:50:50Z,42.805,6.029,13.2985,4.59999,2470.32,2021-5-29T10:52:02Z
2021-05-29T08:53:53Z,42.805,6.029,13.2984,4.59999,2470.343,2021-5-29T10:55:05Z
2021-05-29T08:56:56Z,42.805,6.029,13.2990,4.59998,2470.334,2021-5-29T10:58:09Z
2021-05-29T08:59:59Z,42.805,6.029,13.2986,4.59998,2470.357,2021-5-29T11:01:12Z
2021-05-29T09:03:03Z,42.805,6.029,13.2995,4.60001,2470.343,2021-5-29T11:04:15Z
2021-05-29T09:06:06Z,42.805,6.029,13.2987,4.59997,2470.343,2021-5-29T11:07:18Z
2021-05-29T09:09:09Z,42.805,6.029,13.2990,4.59999,2470.31,2021-5-29T11:10:21Z
2021-05-29T09:12:12Z,42.805,6.029,13.2991,4.60002,2470.357,2021-5-29T11:13:24Z
2021-05-29T09:15:15Z,42.805,6.029,13.2986,4.60000,2470.366,2021-5-29T11:16:27Z
2021-05-29T09:18:18Z,42.805,6.029,13.2989,4.60003,2470.357,2021-5-29T11:19:30Z
2021-05-29T09:21:21Z,42.805,6.029,13.2990,4.60003,2470.357,2021-5-29T11:22:34Z
2021-05-29T09:24:25Z,42.805,6.029,13.2991,4.60002,2470.32,2021-5-29T11:25:37Z
2021-05-29T09:27:28Z,42.805,6.029,13.2988,4.59998,2470.343,2021-5-29T11:28:40Z
2021-05-29T09:30:31Z,42.805,6.029,13.2986,4.60008,2470.357,2021-5-29T11:31:43Z
2021-05-29T09:33:34Z,42.805,6.029,13.2987,4.60004,2470.357,2021-5-29T11:34:46Z
2021-05-29T09:36:37Z,42.805,6.029,13.2988,4.59998,2470.38,2021-5-29T11:37:49Z
2021-05-29T09:39:40Z,42.805,6.029,13.2987,4.59997,2470.343,2021-5-29T11:40:52Z
2021-05-29T09:42:43Z,42.805,6.029,13.2987,4.59998,2470.343,2021-5-29T11:43:55Z
2021-05-29T09:45:46Z,42.805,6.029,13.2986,4.59999,2470.343,2021-5-29T11:46:59Z
2021-05-29T09:48:50Z,42.805,6.029,13.2991,4.59998,2470.334,2021-5-29T11:50:02Z
2021-05-29T09:51:53Z,42.805,6.029,13.2988,4.59999,2470.357,2021-5-29T11:53:05Z
2021-05-29T09:54:56Z,42.805,6.029,13.2987,4.59996,2470.343,2021-5-29T11:56:08Z
2021-05-29T09:57:59Z,42.805,6.029,13.2984,4.59999,2470.343,2021-5-29T11:59:11Z
2021-05-29T10:01:02Z,42.805,6.029,13.2989,4.59996,2470.357,2021-5-29T12:02:14Z
2021-05-29T10:04:05Z,42.805,6.029,13.2986,4.60003,2470.32,2021-5-29T12:05:17Z
2021-05-29T10:07:08Z,42.805,6.029,13.2991,4.60001,2470.357,2021-5-29T12:08:21Z
2021-05-29T10:10:11Z,42.805,6.029,13.2989,4.59999,2470.32,2021-5-29T12:11:24Z
2021-05-29T10:13:15Z,42.805,6.029,13.3000,4.60029,2470.32,2021-5-29T12:14:27Z
2021-05-29T10:16:18Z,42.805,6.029,13.3015,4.60036,2470.297,2021-5-29T12:17:30Z
2021-05-29T10:19:21Z,42.805,6.029,13.3024,4.60011,2470.32,2021-5-29T12:20:33Z
2021-05-29T10:22:24Z,42.805,6.029,13.3029,4.60035,2470.334,2021-5-29T12:23:36Z
2021-05-29T10:25:27Z,42.805,6.029,13.2990,4.60007,2470.32,2021-5-29T12:26:39Z
2021-05-29T10:28:30Z,42.805,6.029,13.2992,4.60014,2470.297,2021-5-29T12:29:42Z
2021-05-29T10:31:33Z,42.805,6.029,13.2997,4.60025,2470.297,2021-5-29T12:32:46Z
2021-05-29T10:34:36Z,42.805,6.029,13.3022,4.60044,2470.297,2021-5-29T12:35:49Z
2021-05-29T10:37:40Z,42.805,6.029,13.3022,4.60026,2470.297,2021-5-29T12:38:52Z
2021-05-29T10:40:43Z,42.805,6.029,13.3022,4.60011,2470.32,2021-5-29T12:41:55Z
2021-05-29T10:43:46Z,42.805,6.029,13.3017,4.60020,2470.297,2021-5-29T12:44:58Z
2021-05-29T10:46:49Z,42.805,6.029,13.3014,4.60016,2470.31,2021-5-29T12:48:01Z
2021-05-29T10:49:52Z,42.805,6.029,13.3014,4.60036,2470.32,2021-5-29T12:51:04Z
2021-05-29T10:52:55Z,42.805,6.029,13.3023,4.60046,2470.334,2021-5-29T12:54:07Z
2021-05-29T10:55:58Z,42.805,6.029,13.3033,4.60036,2470.297,2021-5-29T12:57:11Z
2021-05-29T10:59:02Z,42.805,6.029,13.3024,4.60045,2470.31,2021-5-29T13:00:14Z
2021-05-29T11:02:05Z,42.805,6.029,13.3021,4.60066,2470.25,2021-5-29T13:03:17Z
2021-05-29T11:05:08Z,42.805,6.029,13.3029,4.60055,2470.273,2021-5-29T13:06:20Z
2021-05-29T11:08:11Z,42.805,6.029,13.3022,4.60058,2470.25,2021-5-29T13:09:23Z
2021-05-29T11:11:14Z,42.805,6.029,13.3014,4.60061,2470.273,2021-5-29T13:12:26Z
2021-05-29T11:14:17Z,42.805,6.029,13.3016,4.60057,2470.25,2021-5-29T13:15:29Z
2021-05-29T11:17:20Z,42.805,6.029,13.3028,4.60021,2470.287,2021-5-29T13:18:32Z
2021-05-29T11:20:23Z,42.805,6.029,13.3029,4.60016,2470.227,2021-5-29T13:21:36Z
2021-05-29T11:23:27Z,42.805,6.029,13.3024,4.60040,2470.264,2021-5-29T13:24:39Z
2021-05-29T11:26:30Z,42.805,6.029,13.3026,4.60019,2470.24,2021-5-29T13:27:42Z
2021-05-29T11:29:33Z,42.805,6.029,13.3022,4.60039,2470.25,2021-5-29T13:30:45Z
2021-05-29T11:32:36Z,42.805,6.029,13.3021,4.60041,2470.25,2021-5-29T13:33:48Z
2021-05-29T11:35:39Z,42.805,6.029,13.3020,4.60032,2470.25,2021-5-29T13:36:51Z
2021-05-29T11:38:42Z,42.805,6.029,13.3024,4.60035,2470.287,2021-5-29T13:39:54Z
2021-05-29T11:41:45Z,42.805,6.029,13.3041,4.60073,2470.287,2021-5-29T13:42:57Z
2021-05-29T11:44:48Z,42.805,6.029,13.3014,4.60049,2470.264,2021-5-29T13:46:01Z
2021-05-29T11:47:52Z,42.805,6.029,13.3026,4.60046,2470.273,2021-5-29T13:49:04Z
2021-05-29T11:50:55Z,42.805,6.029,13.3023,4.60034,2470.264,2021-5-29T13:52:07Z
2021-05-29T11:53:58Z,42.805,6.029,13.3028,4.60031,2470.287,2021-5-29T13:55:10Z
2021-05-29T11:57:01Z,42.805,6.029,13.3022,4.60068,2470.287,2021-5-29T13:58:13Z
2021-05-29T12:00:04Z,42.805,6.029,13.3031,4.60045,2470.273,2021-5-29T14:01:16Z
2021-05-29T12:03:07Z,42.805,6.029,13.3018,4.60042,2470.24,2021-5-29T14:04:19Z
2021-05-29T12:06:10Z,42.805,6.029,13.2990,4.60011,2470.273,2021-5-29T14:07:22Z
2021-05-29T12:09:13Z,42.805,6.029,13.3006,4.60019,2470.227,2021-5-29T14:10:26Z
2021-05-29T12:12:17Z,42.805,6.029,13.3013,4.60019,2470.24,2021-5-29T14:13:29Z
2021-05-29T12:15:20Z,42.805,6.029,13.3026,4.60020,2470.25,2021-5-29T14:16:32Z
2021-05-29T12:18:23Z,42.805,6.029,13.3013,4.60009,2470.24,2021-5-29T14:19:35Z
2021-05-29T12:21:26Z,42.805,6.029,13.2996,4.59999,2470.227,2021-5-29T14:22:38Z
2021-05-29T12:24:29Z,42.805,6.029,13.2993,4.60001,2470.264,2021-5-29T14:25:41Z
2021-05-29T12:27:32Z,42.805,6.029,13.3034,4.60019,2470.287,2021-5-29T14:28:44Z
2021-05-29T12:30:35Z,42.805,6.029,13.3003,4.60016,2470.227,2021-5-29T14:31:47Z
2021-05-29T12:33:38Z,42.805,6.029,13.3002,4.59996,2470.18,2021-5-29T14:34:51Z
2021-05-29T12:36:42Z,42.805,6.029,13.2995,4.60011,2470.217,2021-5-29T14:37:54Z
2021-05-29T12:39:45Z,42.805,6.029,13.2990,4.60000,2470.203,2021-5-29T14:40:57Z
2021-05-29T12:42:48Z,42.805,6.029,13.2995,4.60004,2470.217,2021-5-29T14:44:00Z
2021-05-29T12:45:51Z,42.805,6.029,13.3007,4.60011,2470.217,2021-5-29T14:47:03Z
2021-05-29T12:48:54Z,42.805,6.029,13.2986,4.60001,2470.24,2021-5-29T14:50:06Z
2021-05-29T12:51:57Z,42.805,6.029,13.2986,4.60000,2470.24,2021-5-29T14:53:09Z
2021-05-29T12:55:00Z,42.805,6.029,13.2995,4.60017,2470.227,2021-5-29T14:56:13Z
2021-05-29T12:58:03Z,42.805,6.029,13.2998,4.60011,2470.203,2021-5-29T14:59:16Z
2021-05-29T13:01:07Z,42.805,6.029,13.3001,4.60021,2470.203,2021-5-29T15:02:19Z
2021-05-29T13:04:10Z,42.805,6.029,13.2982,4.60005,2470.217,2021-5-29T15:05:22Z
2021-05-29T13:07:13Z,42.805,6.029,13.2990,4.60000,2470.203,2021-5-29T15:08:25Z
2021-05-29T13:10:16Z,42.805,6.029,13.2986,4.59998,2470.24,2021-5-29T15:11:28Z
2021-05-29T13:13:19Z,42.805,6.029,13.2991,4.60002,2470.18,2021-5-29T15:14:31Z
2021-05-29T13:16:22Z,42.805,6.029,13.2988,4.59996,2470.203,2021-5-29T15:17:34Z
2021-05-29T13:19:25Z,42.805,6.029,13.2994,4.60033,2470.217,2021-5-29T15:20:38Z
2021-05-29T13:22:28Z,42.805,6.029,13.3016,4.60016,2470.217,2021-5-29T15:23:41Z
2021-05-29T13:25:32Z,42.805,6.029,13.3030,4.60033,2470.171,2021-5-29T15:26:44Z
2021-05-29T13:28:35Z,42.805,6.029,13.2986,4.60002,2470.194,2021-5-29T15:29:47Z
2021-05-29T13:31:38Z,42.805,6.029,13.2985,4.60004,2470.156,2021-5-29T15:32:50Z
2021-05-29T13:34:41Z,42.805,6.029,13.2986,4.60001,2470.194,2021-5-29T15:35:53Z
2021-05-29T13:37:44Z,42.805,6.029,13.2983,4.60001,2470.147,2021-5-29T15:38:56Z
2021-05-29T13:40:47Z,42.805,6.029,13.2989,4.59998,2470.203,2021-5-29T15:41:59Z
2021-05-29T13:43:50Z,42.805,6.029,13.2985,4.60001,2470.156,2021-5-29T15:45:03Z
2021-05-29T13:46:54Z,42.805,6.029,13.2990,4.60009,2470.171,2021-5-29T15:48:06Z
2021-05-29T13:49:57Z,42.805,6.029,13.2985,4.60003,2470.18,2021-5-29T15:51:09Z
2021-05-29T13:53:00Z,42.805,6.029,13.2985,4.60001,2470.171,2021-5-29T15:54:12Z
2021-05-29T13:56:03Z,42.805,6.029,13.2990,4.60009,2470.18,2021-5-29T15:57:15Z
2021-05-29T13:59:06Z,42.805,6.029,13.2988,4.60002,2470.18,2021-5-29T16:00:18Z
2021-05-29T14:02:09Z,42.805,6.029,13.3006,4.60003,2470.133,2021-5-29T16:03:21Z
2021-05-29T14:05:12Z,42.805,6.029,13.2993,4.60006,2470.156,2021-5-29T16:06:24Z
2021-05-29T14:08:15Z,42.805,6.029,13.2996,4.60009,2470.171,2021-5-29T16:09:28Z
2021-05-29T14:11:19Z,42.805,6.029,13.2998,4.60006,2470.147,2021-5-29T16:12:31Z
2021-05-29T14:14:22Z,42.805,6.029,13.2985,4.60003,2470.156,2021-5-29T16:15:34Z
2021-05-29T14:17:25Z,42.805,6.029,13.2993,4.60003,2470.133,2021-5-29T16:18:37Z
2021-05-29T14:20:28Z,42.805,6.029,13.2984,4.60003,2470.156,2021-5-29T16:21:40Z
2021-05-29T14:23:31Z,42.805,6.029,13.2988,4.60003,2470.156,2021-5-29T16:24:43Z
2021-05-29T14:26:34Z,42.805,6.029,13.2984,4.60000,2470.156,2021-5-29T16:27:46Z
2021-05-29T14:29:37Z,42.805,6.029,13.2986,4.60001,2470.156,2021-5-29T16:30:49Z
2021-05-29T14:32:40Z,42.805,6.029,13.2988,4.59996,2470.133,2021-5-29T16:33:53Z
2021-05-29T14:35:44Z,42.805,6.029,13.2991,4.59999,2470.18,2021-5-29T16:36:56Z
2021-05-29T14:38:47Z,42.805,6.029,13.2989,4.59999,2470.133,2021-5-29T16:39:59Z
2021-05-29T14:41:50Z,42.805,6.029,13.2985,4.59997,2470.124,2021-5-29T16:43:02Z
2021-05-29T14:44:53Z,42.805,6.029,13.2986,4.60001,2470.147,2021-5-29T16:46:05Z
2021-05-29T14:47:56Z,42.805,6.029,13.2986,4.60003,2470.147,2021-5-29T16:49:08Z
2021-05-29T14:50:59Z,42.805,6.029,13.2986,4.60000,2470.147,2021-5-29T16:52:11Z
2021-05-29T14:54:02Z,42.805,6.029,13.2984,4.60008,2470.171,2021-5-29T16:55:14Z
2021-05-29T14:57:05Z,42.805,6.029,13.2989,4.60001,2470.124,2021-5-29T16:58:18Z
2021-05-29T15:00:09Z,42.805,6.029,13.2983,4.60002,2470.147,2021-5-29T17:01:21Z
2021-05-29T15:03:12Z,42.805,6.029,13.2985,4.60002,2470.133,2021-5-29T17:04:24Z
2021-05-29T15:06:15Z,42.805,6.029,13.2986,4.59996,2470.156,2021-5-29T17:07:27Z
2021-05-29T15:09:18Z,42.805,6.029,13.2987,4.59997,2470.11,2021-5-29T17:10:30Z
2021-05-29T15:12:21Z,42.805,6.029,13.2990,4.60002,2470.156,2021-5-29T17:13:33Z
2021-05-29T15:15:24Z,42.805,6.029,13.2983,4.60004,2470.171,2021-5-29T17:16:36Z